Вернуться в каталог

FENGYUN 1C DEB

АктивенSSO
NORAD 32094·DEBRIS·🇨🇳 China

Запущен May 10, 1999 с Taiyuan Satellite Launch Center

Loading…

Ближайшие Пролёты (ближайшие 24 часа)

TLE

СвежийSource: Space-Track

Эпоха: Sep 14, 2026, 10:07 UTC

1 32094U 99025CQL 26257.42195359  .00000320  00000-0  20087-3 0  9998
2 32094  98.7659 245.8655 0034003 205.1344 154.8174 14.11053057982521

Отслеживайте FENGYUN 1C DEB в реальном времени с AllMySat

Download on the App Store